Portland Hillsboro, OR

2:16 AM PST on January 16, 2018 (GMT -0800)
Portland-Hillsboro

Weather History for KHIO - July, 2013

Change the Weather History Date:

Saturday, July 27, 2013

  Actual Average Record
Temperature  
Mean Temperature 65 °F 67 °F  
Max Temperature 81 °F 82 °F 105 °F (1958)
Min Temperature 48 °F 52 °F 37 °F (1930)
Degree Days  
Heating Degree Days 0 1  
Month to date heating degree days 18 50  
Since 1 July heating degree days 18 50  
Cooling Degree Days 0 3  
Month to date cooling degree days 83 63  
Year to date cooling degree days 128 89  
Growing Degree Days 14 (Base 50)    
Moisture  
Dew Point 46 °F    
Average Humidity 57    
Maximum Humidity 86    
Minimum Humidity 28    
Precipitation  
Precipitation 0.00 in 0.01 in 0.23 in (1947)
Month to date precipitation T 0.49  
Year to date precipitation 12.77 21.38  
Snow  
Snow 0.00 in - - ()
Month to date snowfall 0.0  
Since 1 June snowfall 0.0  
Since 1 July snowfall 0.0  
Snow Depth 0.00 in    
Sea Level Pressure  
Sea Level Pressure 30.11 in    
Wind  
Wind Speed 7 mph (NNW)    
Max Wind Speed 18 mph    
Max Gust Speed 22 mph    
Visibility 10 miles    
Events      
T = Trace of Precipitation, MM = Missing Value Source: NWS Daily Summary

Daily Weather History Graph

Daily Weather History Graph

Search for Another Location

Airport or City:

Trip Planner

Search our weather history database for the weather conditions in past years. The results will help you decide how hot, cold, wet, or windy it might be!

Date:

Astronomy

Jul. 27, 2013 Rise Set
Actual Time 5:50 AM PDT 8:45 PM PDT
Civil Twilight 5:15 AM PDT 9:20 PM PDT
Nautical Twilight 4:30 AM PDT 10:04 PM PDT
Astronomical Twilight 3:37 AM PDT 10:57 PM PDT
Moon 11:13 PM PDT (7/27) 11:57 AM PDT (7/27)
Length of Visible Light 16h 04m
Length of Day
14h 55m
Waning Gibbous, 70% of the Moon is Illuminated
Jul 27
Waning Gibbous
Jul 29
Last Quarter
Aug 6
New
Aug 14
First Quarter
Aug 20
Full

Hourly Weather History & Observations

Time (PDT) Temp. Dew Point Humidity Pressure Visibility Wind Dir Wind Speed Gust Speed Precip Events Conditions
12:53 AM 59.0 °F 44.1 °F 58% 30.16 in 10.0 mi NW 5.8 mph - N/A   Clear
1:53 AM 57.9 °F 45.0 °F 62% 30.16 in 10.0 mi NW 11.5 mph - N/A   Clear
2:53 AM 55.0 °F 46.0 °F 72% 30.17 in 10.0 mi NW 5.8 mph - N/A   Clear
3:53 AM 53.1 °F 46.0 °F 77% 30.17 in 10.0 mi NNW 4.6 mph - N/A   Clear
4:53 AM 52.0 °F 46.0 °F 80% 30.17 in 10.0 mi NW 6.9 mph - N/A   Clear
5:53 AM 48.9 °F 44.1 °F 83% 30.18 in 10.0 mi Calm Calm - N/A   Clear
6:53 AM 52.0 °F 46.9 °F 83% 30.19 in 10.0 mi ENE 3.5 mph - N/A   Clear
7:53 AM 57.9 °F 48.9 °F 72% 30.18 in 10.0 mi Variable 3.5 mph - N/A   Clear
8:53 AM 62.1 °F 50.0 °F 65% 30.18 in 10.0 mi NE 6.9 mph - N/A   Clear
9:53 AM 64.9 °F 48.9 °F 56% 30.17 in 10.0 mi North 5.8 mph - N/A   Clear
10:53 AM 66.9 °F 48.9 °F 52% 30.16 in 10.0 mi Calm Calm - N/A   Clear
11:53 AM 70.0 °F 48.0 °F 46% 30.14 in 10.0 mi Calm Calm - N/A   Clear
12:53 PM 75.0 °F 46.9 °F 37% 30.11 in 10.0 mi North - - N/A   Clear
1:53 PM 79.0 °F 46.0 °F 31% 30.09 in 10.0 mi NNW 9.2 mph - N/A   Clear
2:42 PM 78.1 °F 45.0 °F 31% 30.08 in 4.0 mi Variable 5.8 mph 19.6 mph N/A   Haze
2:53 PM 79.0 °F 43.0 °F 28% 30.07 in 10.0 mi Calm Calm - N/A   Clear
3:53 PM 81.0 °F 45.0 °F 28% 30.05 in 10.0 mi North 8.1 mph - N/A   Clear
4:53 PM 80.1 °F 44.1 °F 28% 30.03 in 10.0 mi NNW 12.7 mph - N/A   Clear
5:53 PM 78.1 °F 43.0 °F 29% 30.02 in 10.0 mi North 12.7 mph - N/A   Clear
6:53 PM 75.0 °F 46.0 °F 36% 30.01 in 10.0 mi NNW 11.5 mph - N/A   Clear
7:53 PM 70.0 °F 48.0 °F 46% 30.01 in 10.0 mi NW 13.8 mph - N/A   Clear
8:53 PM 64.0 °F 46.9 °F 54% 30.03 in 10.0 mi NW 9.2 mph - N/A   Clear
9:53 PM 61.0 °F 48.0 °F 62% 30.03 in 10.0 mi NNW 13.8 mph - N/A   Clear
10:53 PM 57.9 °F 48.0 °F 70% 30.04 in 10.0 mi NW 12.7 mph - N/A   Clear
11:53 PM 57.0 °F 46.9 °F 69% 30.04 in 10.0 mi NW 11.5 mph - N/A   Clear